Stations météo

réclame
Mon MeteoGroup
Helgoland, Allemagne (10015): Température de l'air & dewpoint: 16.07.2018 08:00:00 - 22.07.2018 08:00:00 (CEST)Helgoland, Allemagne (10015): Température de l'air 5cm: 16.07.2018 08:00:00 - 22.07.2018 08:00:00 (CEST)Helgoland, Allemagne (10015): Vitesse du vent & gusts: 16.07.2018 08:00:00 - 22.07.2018 08:00:00 (CEST)Helgoland, Allemagne (10015): Direction du vent: 16.07.2018 08:00:00 - 22.07.2018 08:00:00 (CEST)Helgoland, Allemagne (10015): reduced air pressure: 16.07.2018 08:00:00 - 22.07.2018 08:00:00 (CEST)Helgoland, Allemagne (10015): visibility: 16.07.2018 08:00:00 - 22.07.2018 08:00:00 (CEST)Helgoland, Allemagne (10015): Ensoleillement: 16.07.2018 08:00:00 - 22.07.2018 08:00:00 (CEST)Helgoland, Allemagne (10015): Quantités de précipitations: 16.07.2018 08:00:00 - 22.07.2018 08:00:00 (CEST)
Date & Time tt [°C] td [°C] tt 5cm [°C] ff [km/h] ff [knt] fx [km/h] fx [knt] dd ppp [hPa] vv [km] sd [min] rr [mm]
22.07.2018 08:00:00 19,2 14,5 20,9 15 8 19 11 NW 1012,4 21 57 0,0
22.07.2018 07:00:00 18,6 13,5 17,4 16 8 20 11 NNW 1012,1 31 21 0,0
22.07.2018 06:00:00 18,2 14,1 16,2 18 10 21 11 NNW 1012,1 70 0 0,0
22.07.2018 05:00:00 18,6 14,4 16,3 11 6 15 8 N 1012,1 70 0 0,0
22.07.2018 04:00:00 18,5 14,5 17,1 10 5 21 11 N 1012,2 69 0 0,0
22.07.2018 03:00:00 18,7 15,0 17,5 10 5 26 14 N 1012,4 63 0 0,0
22.07.2018 02:00:00 18,6 15,6 17,9 23 12 27 14 N 1012,4 60 0 0,0
22.07.2018 01:00:00 18,7 15,9 17,4 13 7 20 11 N 1012,2 63 0 0,0
22.07.2018 00:00:00 19,0 15,4 18,7 15 8 21 11 N 1012,3 59 0 0,0
21.07.2018 23:00:00 19,1 15,5 18,4 16 8 25 14 NNE 1012,2 30 0 0,0
21.07.2018 22:00:00 19,2 14,8 18,7 21 12 28 15 NNE 1012,0 43 0 0,0
21.07.2018 21:00:00 19,2 15,0 19,2 21 11 28 15 NNE 1011,9 37 0 0,0
21.07.2018 20:00:00 19,4 14,9 20,4 21 11 29 16 N 1012,0 37 0 0,0
21.07.2018 19:00:00 19,3 16,1 20,7 21 11 28 15 N 1012,1 35 0 0,0
21.07.2018 18:00:00 20,0 15,7 22,3 23 12 29 16 N 1012,3 30 0 0,0
21.07.2018 17:00:00 20,1 16,1 22,5 15 8 24 13 N 1012,5 37 0 0,0
21.07.2018 16:00:00 20,4 15,9 25,4 16 9 23 12 N 1012,7 29 2 0,0
21.07.2018 15:00:00 21,2 15,1 28,6 19 11 22 12 NE 1012,8 17 18 0,0
21.07.2018 14:00:00 20,7 15,6 29,6 18 10 20 11 NE 1012,9 17 15 0,0
21.07.2018 13:00:00 20,7 15,6 26,0 13 7 19 11 ENE 1013,0 21 1 0,0
21.07.2018 12:00:00 21,2 16,1 28,1 18 10 21 11 ENE 1013,1 17 21 0,0
21.07.2018 11:00:00 20,9 15,6 27,7 18 10 24 13 ENE 1013,1 18 60 0,0
21.07.2018 10:00:00 20,1 14,7 25,2 22 12 25 13 ENE 1013,3 20 59 0,0
21.07.2018 09:00:00 19,7 14,9 22,8 19 10 22 12 ENE 1013,1 29 18 0,0
21.07.2018 08:00:00 18,6 14,2 19,2 20 11 23 13 ENE 1012,9 40 2 0,0
21.07.2018 07:00:00 18,4 14,2 17,6 20 11 24 13 ENE 1012,9 47 0 0,0
21.07.2018 06:00:00 18,3 13,7 16,6 22 12 26 14 ENE 1012,9 61 0 0,0
21.07.2018 05:00:00 18,1 14,1 16,3 23 12 29 16 ENE 1013,0 45 0 0,0
21.07.2018 04:00:00 18,3 14,4 16,7 23 12 29 16 NE 1013,2 51 0 0,0
21.07.2018 03:00:00 18,4 14,2 16,7 24 13 29 16 NE 1013,4 56 0 0,0
21.07.2018 02:00:00 18,3 14,8 16,7 25 13 30 16 NE 1013,6 45 0 0,0
21.07.2018 01:00:00 18,4 14,7 16,9 26 14 30 16 NNE 1013,7 52 0 0,0
21.07.2018 00:00:00 18,3 14,7 16,8 25 14 31 17 NE 1013,8 48 0 0,0
20.07.2018 23:00:00 18,2 15,0 16,6 24 13 30 16 NNE 1013,6 41 0 0,0
20.07.2018 22:00:00 18,2 14,0 17,0 26 14 32 17 N 1013,6 63 0 0,0
20.07.2018 21:00:00 18,4 13,2 18,3 27 14 34 18 N 1013,6 40 52 0,0
20.07.2018 20:00:00 18,5 13,7 20,7 28 15 34 18 N 1013,8 18 60 0,0
20.07.2018 19:00:00 18,9 13,8 24,1 23 12 29 16 N 1014,2 34 60 0,0
20.07.2018 18:00:00 19,5 12,4 26,4 19 11 26 14 N 1014,8 24 59 0,0
20.07.2018 17:00:00 19,7 12,6 27,9 21 11 23 13 N 1015,3 70 53 0,0
20.07.2018 16:00:00 19,5 12,3 30,6 15 8 18 10 N 1015,6 26 60 0,0
20.07.2018 15:00:00 19,5 11,3 31,6 12 6 17 9 NNE 1015,9 29 60 0,0
20.07.2018 14:00:00 20,6 10,8 30,3 11 6 15 8 ENE 1016,2 32 60 0,0
20.07.2018 13:00:00 19,6 11,7 29,4 12 6 16 9 ENE 1016,5 17 60 0,0
20.07.2018 12:00:00 20,0 12,5 28,4 11 6 18 10 ENE 1016,7 28 56 0,0
20.07.2018 11:00:00 19,2 12,1 27,1 15 8 19 11 NE 1016,6 32 55 0,0
20.07.2018 10:00:00 17,8 12,4 22,9 14 8 17 9 NE 1016,8 35 52 0,0
20.07.2018 09:00:00 17,4 12,4 20,2 11 6 14 8 NE 1016,8 49 56 0,0
20.07.2018 08:00:00 17,3 12,6 18,3 11 6 14 7 NE 1016,7 68 60 0,0
20.07.2018 07:00:00 16,9 12,9 14,7 6 4 9 5 ENE 1017,0 65 27 0,0
20.07.2018 06:00:00 16,3 12,9 13,2 8 5 13 7 ENE 1017,1 62 0 0,0
20.07.2018 05:00:00 16,4 12,8 13,5 8 4 11 6 ENE 1017,4 50 0 0,0
20.07.2018 04:00:00 16,6 13,0 14,8 8 4 14 7 NNE 1017,6 52 0 0,0
20.07.2018 03:00:00 16,6 12,9 14,7 12 7 17 9 NE 1018,0 60 0 0,0
20.07.2018 02:00:00 16,7 12,9 14,7 15 8 18 10 NNE 1018,2 62 0 0,0
20.07.2018 01:00:00 16,8 12,8 15,0 15 8 23 13 NNE 1018,2 58 0 0,0
20.07.2018 00:00:00 17,0 12,9 15,4 19 10 26 14 NNE 1018,2 53 0 0,0
19.07.2018 23:00:00 17,1 13,0 15,7 19 10 25 13 NNE 1018,3 62 0 0,0
19.07.2018 22:00:00 17,0 13,2 15,8 19 11 26 14 N 1018,5 52 3 0,0
19.07.2018 21:00:00 17,6 12,9 18,7 19 10 23 13 N 1018,7 56 60 0,0
19.07.2018 20:00:00 18,0 12,1 22,5 16 9 25 13 N 1018,9 54 60 0,0
19.07.2018 19:00:00 18,7 11,3 26,1 18 10 21 12 N 1019,1 36 60 0,0
19.07.2018 18:00:00 18,4 12,1 26,6 16 9 21 11 N 1019,5 27 60 0,0
19.07.2018 17:00:00 19,0 12,7 29,1 16 9 20 11 N 1019,8 16 60 0,0
19.07.2018 16:00:00 19,0 12,9 30,9 15 8 19 10 NNW 1019,9 24 60 0,0
19.07.2018 15:00:00 18,8 13,1 29,6 13 7 16 9 N 1019,9 25 41 0,0
19.07.2018 14:00:00 19,1 13,3 27,0 8 4 19 10 NW 1020,1 24 51 0,0
19.07.2018 13:00:00 19,3 13,4 29,0 10 5 19 10 N 1020,2 48 55 0,0
19.07.2018 12:00:00 18,7 12,9 27,4 13 7 19 10 NW 1020,2 26 29 0,0
19.07.2018 11:00:00 19,0 14,0 24,1 10 6 22 12 NNW 1020,0 38 31 0,0
19.07.2018 10:00:00 19,1 14,7 26,0 13 7 18 10 NW 1020,0 23 22 0,0
19.07.2018 09:00:00 18,2 14,2 21,1 8 4 13 7 WNW 1019,9 28 43 0,0
19.07.2018 08:00:00 17,6 14,2 18,2 8 4 11 6 WNW 1019,9 30 60 0,0
19.07.2018 07:00:00 16,9 14,6 15,5 6 4 8 4 WNW 1019,8 28 32 0,0
19.07.2018 06:00:00 15,9 14,1 10,2 6 3 13 7 N 1019,6 25 0 0,0
19.07.2018 05:00:00 16,0 14,4 13,6 11 6 14 7 NNW 1019,5 23 0 0,0
19.07.2018 04:00:00 16,0 14,4 13,5 9 5 13 7 NNW 1019,7 18 0 0,0
19.07.2018 03:00:00 16,2 14,7 13,4 9 5 12 7 NNW 1019,5 17 0 0,0
19.07.2018 02:00:00 16,2 14,0 13,6 8 5 13 7 NNW 1019,7 25 0 0,0
19.07.2018 01:00:00 16,4 14,1 13,1 6 3 10 6 NNW 1019,7 29 0 0,0
19.07.2018 00:00:00 16,5 14,0 14,1 7 4 14 8 NW 1019,7 30 0 0,0
18.07.2018 23:00:00 16,9 14,1 14,8 9 5 16 9 NNW 1019,5 30 0 0,0
18.07.2018 22:00:00 17,1 14,3 15,6 12 6 19 10 N 1019,4 31 5 0,0
18.07.2018 21:00:00 17,7 13,9 18,4 16 9 21 11 NNW 1019,2 42 60 0,0
18.07.2018 20:00:00 18,6 13,9 22,6 16 9 25 13 NNW 1019,1 42 60 0,0
18.07.2018 19:00:00 19,3 14,2 25,0 18 10 24 13 NW 1019,1 28 60 0,0
18.07.2018 18:00:00 18,8 13,9 25,8 19 10 27 15 WNW 1019,3 22 60 0,0
18.07.2018 17:00:00 19,1 13,7 27,6 22 12 27 14 WNW 1019,4 24 60 0,0
18.07.2018 16:00:00 19,1 13,8 29,2 21 11 28 15 NW 1019,3 21 60 0,0
18.07.2018 15:00:00 19,4 13,4 29,0 22 12 28 15 WNW 1019,1 18 60 0,0
18.07.2018 14:00:00 18,8 13,0 28,7 24 13 30 16 WNW 1018,9 21 60 0,0
18.07.2018 13:00:00 19,5 13,4 28,3 24 13 34 18 NW 1018,8 21 59 0,0
18.07.2018 12:00:00 19,2 13,4 27,0 27 15 33 18 NW 1018,4 27 60 0,0
18.07.2018 11:00:00 18,6 13,6 25,2 27 15 35 19 NW 1018,0 15 60 0,0
18.07.2018 10:00:00 18,6 13,7 23,8 26 14 35 19 NW 1017,7 18 60 0,0
18.07.2018 09:00:00 18,0 13,7 20,8 30 16 39 21 NW 1017,4 34 57 0,0
18.07.2018 08:00:00 18,0 14,7 19,3 29 16 39 21 WNW 1016,6 37 21 0,0
18.07.2018 07:00:00 17,6 15,2 17,3 30 16 37 20 WNW 1016,1 36 0 0,0
18.07.2018 06:00:00 17,7 15,3 17,3 27 14 37 20 WNW 1015,9 25 0 0,0
18.07.2018 05:00:00 17,7 15,0 17,2 25 14 35 19 WNW 1015,7 21 0 0,0
18.07.2018 04:00:00 17,8 16,3 17,3 25 14 35 19 W 1015,5 14 0 0,0
18.07.2018 03:00:00 17,6 15,9 17,4 27 15 34 19 W 1015,4 16 0 0,0
18.07.2018 02:00:00 17,4 15,4 16,7 29 16 36 19 W 1015,4 18 0 0,0
18.07.2018 01:00:00 17,3 14,9 16,5 26 14 34 18 W 1015,5 19 0 0,0
18.07.2018 00:00:00 17,4 13,8 16,9 27 14 34 18 W 1015,6 25 0 0,0
17.07.2018 23:00:00 17,3 14,6 16,2 24 13 38 21 W 1015,6 19 0 0,0
17.07.2018 22:00:00 17,4 15,4 17,1 31 17 40 22 W 1015,3 12 5 0,0
17.07.2018 21:00:00 18,6 15,7 19,0 32 17 44 24 W 1014,8 15 60 0,0
17.07.2018 20:00:00 19,4 15,8 21,4 27 15 39 21 W 1014,4 12 60 0,0
17.07.2018 19:00:00 20,1 15,6 23,5 31 17 38 21 W 1014,1 13 60 0,0
17.07.2018 18:00:00 22,9 17,0 27,6 27 14 32 17 W 1013,7 13 60 0,0
17.07.2018 17:00:00 23,5 14,7 33,2 8 5 14 8 E 1013,2 17 60 0,0
17.07.2018 16:00:00 23,9 14,0 33,6 12 7 15 8 ENE 1013,1 14 60 0,0
17.07.2018 15:00:00 23,7 17,2 33,7 6 3 8 4 E 1013,5 14 60 0,0
17.07.2018 14:00:00 22,7 16,0 31,9 5 3 9 5 SSW 1013,7 12 60 0,0
17.07.2018 13:00:00 22,0 15,6 30,7 8 5 9 5 S 1013,6 13 60 0,0
17.07.2018 12:00:00 21,7 16,5 29,2 10 5 16 8 SSE 1013,7 12 60 0,0
17.07.2018 11:00:00 21,0 16,5 27,6 14 8 16 9 SE 1013,7 17 60 0,0
17.07.2018 10:00:00 21,1 15,5 26,0 13 7 16 8 SSE 1013,5 18 60 0,0
17.07.2018 09:00:00 20,3 15,4 23,2 13 7 14 8 S 1013,5 25 60 0,0
17.07.2018 08:00:00 19,6 16,8 20,2 10 5 14 7 SE 1013,5 17 59 0,0
17.07.2018 07:00:00 19,1 16,7 17,4 8 4 9 5 E 1013,2 24 19 0,0
17.07.2018 06:00:00 18,0 16,5 13,5 6 3 10 5 ENE 1013,1 19 0 0,0
17.07.2018 05:00:00 18,1 16,2 15,3 9 5 10 6 NE 1013,2 23 0 0,0
17.07.2018 04:00:00 18,3 16,0 15,2 7 4 12 6 NE 1013,4 27 0 0,0
17.07.2018 03:00:00 18,5 15,6 15,5 10 6 12 7 NNE 1013,5 31 0 0,0
17.07.2018 02:00:00 18,7 15,5 16,0 11 6 16 9 NE 1013,9 35 0 0,0
17.07.2018 01:00:00 19,0 15,2 16,8 13 7 17 9 NNE 1014,0 38 0 0,0
17.07.2018 00:00:00 18,5 15,7 16,7 14 8 19 10 NNE 1014,1 29 0 0,0
16.07.2018 23:00:00 18,4 15,8 17,1 15 8 24 13 N 1014,2 24 0 0,0
16.07.2018 22:00:00 18,7 15,9 17,8 19 10 25 13 NNE 1014,3 27 5 0,0
16.07.2018 21:00:00 19,3 15,5 20,2 14 8 22 12 N 1013,9 39 60 0,0
16.07.2018 20:00:00 19,5 15,0 23,9 17 9 23 12 N 1013,9 32 60 0,0
16.07.2018 19:00:00 20,1 15,3 26,9 18 10 23 12 N 1014,0 31 60 0,0
16.07.2018 18:00:00 20,5 15,6 28,6 17 9 22 12 N 1014,3 25 60 0,0
16.07.2018 17:00:00 21,7 14,5 32,1 17 9 20 11 N 1014,7 22 60 0,0
16.07.2018 16:00:00 21,1 15,7 32,5 15 8 19 10 N 1015,1 16 60 0,0
16.07.2018 15:00:00 20,4 15,7 33,5 14 7 16 9 N 1015,5 18 60 0,0
16.07.2018 14:00:00 20,4 15,5 33,4 11 6 14 8 N 1015,9 13 60 0,0
16.07.2018 13:00:00 22,4 15,2 30,1 2 1 5 3 ENE 1016,2 18 60 0,0
16.07.2018 12:00:00 20,8 15,3 28,8 4 2 9 5 ESE 1016,3 17 60 0,0
16.07.2018 11:00:00 21,0 15,6 27,9 9 5 11 6 ESE 1016,2 31 60 0,0
16.07.2018 10:00:00 20,1 15,6 25,8 9 5 14 7 E 1016,3 29 60 0,0
16.07.2018 09:00:00 19,6 15,6 23,2 8 4 11 6 ENE 1016,4 25 60 0,0
16.07.2018 08:00:00 18,8 15,2 19,4 9 5 13 7 E 1016,3 42 60 0,0

tt = Température de l'air
td = dewpoint
tt 5cm = Température de l'air 5cm
ff = Vitesse du vent
fx = gusts
dd = Direction du vent
ppp = reduced air pressure
vv = visibility
sd = Ensoleillement
rr = Quantités de précipitations

stations d'obs. à proximité